McTavish ARS, Quebec

3:20 PM EST on December 14, 2017 (GMT -0500)
McTavish ARS

Weather History for CWTA - October, 2012

Change the Weather History Date:

Saturday, October 27, 2012

  Actual Average Record
Temperature  
Mean Temperature 55 °F -  
Max Temperature 58 °F - - ()
Min Temperature 52 °F - - ()
Degree Days  
Heating Degree Days 10    
Growing Degree Days 5 (Base 50)    
Moisture  
Dew Point 50 °F    
Average Humidity 82    
Maximum Humidity 94    
Minimum Humidity 64    
Precipitation  
Precipitation 0.00 in - - ()
Sea Level Pressure  
Sea Level Pressure 30.05 in    
Wind  
Wind Speed 3 mph ()    
Max Wind Speed 6 mph    
Max Gust Speed -    
T = Trace of Precipitation, MM = Missing Value Source: Averaged Metar Reports

Daily Weather History Graph

Daily Weather History Graph

Search for Another Location

Airport or City:

Trip Planner

Search our weather history database for the weather conditions in past years. The results will help you decide how hot, cold, wet, or windy it might be!

Date:

Astronomy

Oct. 27, 2012 Rise Set
Actual Time 7:27 AM EDT 5:48 PM EDT
Civil Twilight 6:56 AM EDT 6:18 PM EDT
Nautical Twilight 6:22 AM EDT 6:53 PM EDT
Astronomical Twilight 5:47 AM EDT 7:27 PM EDT
Moon 4:35 PM EDT (10/27) 5:15 AM EDT (10/27)
Length of Visible Light 11h 21m
Length of Day
10h 20m
Waxing Gibbous, 96% of the Moon is Illuminated
Oct 27
Waxing Gibbous
Oct 29
Full
Nov 6
Last Quarter
Nov 13
New
Nov 20
First Quarter

Hourly Weather History & Observations

Time (EDT) Temp. Dew Point Humidity Pressure Visibility Wind Dir Wind Speed Gust Speed Precip Events Conditions
12:00 AM 55.9 °F 52.3 °F 88% 30.10 in - South 2.3 mph - N/A   Unknown
1:00 AM 55.6 °F 52.2 °F 88% 30.09 in - SSW 3.5 mph - N/A   Unknown
2:00 AM 56 °F 52 °F 83% 30.09 in - West 1.2 mph - -  
2:00 AM 55.6 °F 52.3 °F 89% 30.09 in - West 1.2 mph - N/A   Unknown
3:00 AM 55.6 °F 52.5 °F 89% 30.09 in - Calm Calm - N/A   Unknown
4:00 AM 55.2 °F 52.0 °F 89% 30.06 in - NNE 3.5 mph - N/A   Unknown
5:00 AM 55.0 °F 52.2 °F 90% 30.04 in - Calm Calm - N/A   Unknown
6:00 AM 54.7 °F 52.3 °F 92% 30.07 in - North 3.5 mph - N/A   Unknown
7:00 AM 54.1 °F 51.8 °F 92% 30.09 in - NNE 4.6 mph - N/A   Unknown
8:00 AM 54 °F 52 °F 90% 30.08 in - NE 2.3 mph - -  
8:00 AM 53.6 °F 52.0 °F 94% 30.08 in - NE 2.3 mph - N/A   Unknown
10:00 AM 52.7 °F 51.1 °F 94% 30.09 in - NE 3.5 mph - N/A   Unknown
11:00 AM 53.8 °F 52.0 °F 94% 30.08 in - NNE 3.5 mph - N/A   Unknown
12:00 PM 55.2 °F 52.2 °F 89% 30.07 in - NNE 4.6 mph - N/A   Unknown
1:00 PM 56.7 °F 52.3 °F 85% 30.04 in - NE 4.6 mph - N/A   Unknown
2:00 PM 57 °F 51 °F 76% 30.03 in - NNE 4.6 mph - -  
2:00 PM 57.4 °F 51.4 °F 81% 30.03 in - NNE 4.6 mph - N/A   Unknown
3:00 PM 56.8 °F 49.3 °F 76% 30.01 in - North 5.8 mph - N/A   Unknown
4:00 PM 57.6 °F 48.7 °F 72% 30.00 in - NNE 4.6 mph - N/A   Unknown
5:00 PM 57.7 °F 48.7 °F 72% 30.00 in - NE 3.5 mph - N/A   Unknown
6:00 PM 58.5 °F 48.9 °F 71% 29.99 in - NNE 3.5 mph - N/A   Unknown
7:00 PM 57.2 °F 47.3 °F 69% 30.01 in - NNE 3.5 mph - N/A   Unknown
8:00 PM 56 °F 47 °F 64% 30.01 in - NNE 4.6 mph - -  
8:00 PM 56.3 °F 47.1 °F 71% 30.01 in - NNE 4.6 mph - N/A   Unknown
9:00 PM 55.6 °F 45.5 °F 69% 30.01 in - NNE 4.6 mph - N/A   Unknown
10:00 PM 55.0 °F 45.5 °F 70% 30.01 in - NNE 3.5 mph - N/A   Unknown
11:00 PM 54.0 °F 46.2 °F 75% 30.01 in - North 3.5 mph - N/A   Unknown